Regional Weather Roundup
Issued by NWS

Home | Current Version | Previous Version | Text Only | Print | Product List | Glossary Off
Versions: 1 2 3 4 5 6 7 8 9 10 11 12 13 14 15 16 17 18 19 20 21 22 23 24 25 26 27 28 29 30 31 32 33 34 35 36 37 38 39 40 41 42 43 44 45 46 47 48 49 50

000
ASUS45 KBOI 270510
RWRID
WEATHER ROUNDUP FOR IDAHO
NATIONAL WEATHER SERVICE BOISE ID
1100 PM MDT TUE AUG 26 2014

NOTE: "FAIR" INDICATES FEW OR NO CLOUDS BELOW 12000 FEET
WITH NO SIGNIFICANT WEATHER AND/OR OBSTRUCTIONS TO VISIBILITY

IDZ012-014-270600-
SOUTHWEST IDAHO


CITY           SKY/WX    TMP DP  RH WIND       PRES   REMARKS
BOISE          CLEAR     70  45  40 SE3       30.07R
CALDWELL       CLEAR     66  45  45 S5        30.07R
MOUNTAIN HOME  CLEAR     68  47  47 E2        30.08S
$$

IDZ016-017-270600-
SOUTHCENTRAL IDAHO


CITY           SKY/WX    TMP DP  RH WIND       PRES   REMARKS
BURLEY         PTCLDY    60  53  77 S13       30.15R
JEROME         CLEAR     59  49  69 CALM      30.15R
TWIN FALLS     PTCLDY    64  50  60 SE10      30.16R
$$

IDZ019>023-270600-
SOUTHEAST IDAHO


CITY           SKY/WX    TMP DP  RH WIND       PRES   REMARKS
IDAHO FALLS    PTCLDY    53  48  83 CALM      30.18R
POCATELLO      CLEAR     59  51  75 SW7       30.17R
REXBURG        CLEAR     54  48  80 CALM      30.19R
$$

IDZ006-010-011-018-031-032-270600-
CENTRAL IDAHO MOUNTAINS


CITY           SKY/WX    TMP DP  RH WIND       PRES   REMARKS
MCCALL         CLEAR     59  41  51 CALM      30.18R
HAILEY         PTCLDY    55  46  71 CALM      30.23R
STANLEY          N/A     46  39  76 CALM      30.28R
SALMON         CLEAR     55  52  88 CALM      30.14R
CHALLIS        CLEAR     56  45  66 CALM      30.19R
$$

IDZ002-004-006-007-026-270600-
NORTHERN IDAHO


CITY           SKY/WX    TMP DP  RH WIND       PRES   REMARKS
LEWISTON       CLEAR     74  42  31 S8        29.99S
LOWELL           N/A     60  53  77 N3        30.07R
COEUR D`ALENE  CLEAR     66  52  59 E3        30.03S
MULLAN PASS    CLEAR     57  40  52 VRB3      30.24S
$$



USA.gov is the U.S. government's official web portal to all federal, state and local government web resources and services.